Time,TemperatureF,DewpointF,PressureIn,WindDirection,WindDirectionDegrees,WindSpeedMPH,WindSpeedGustMPH,Humidity,HourlyPrecipIn,Conditions,Clouds,dailyrainin,SoftwareType,DateUTC
2013-08-21 00:00:00,76.2,70.7,30.19,North,5,0.0,5.0,83,0.00,,---,0.00,VWS V13.00,2013-08-21 04:00:00,
2013-08-21 00:01:00,76.2,70.7,30.19,North,5,0.0,5.0,83,0.00,,---,0.00,VWS V13.00,2013-08-21 04:01:00,
2013-08-21 00:06:00,76.2,70.7,30.18,ENE,69,3.0,3.0,83,0.00,,---,0.00,VWS V13.00,2013-08-21 04:06:00,
2013-08-21 00:11:00,76.2,70.7,30.19,East,92,0.0,4.0,83,0.00,,---,0.00,VWS V13.00,2013-08-21 04:11:00,
2013-08-21 00:16:00,76.2,70.7,30.19,East,92,0.0,4.0,83,0.00,,---,0.00,VWS V13.00,2013-08-21 04:16:00,
2013-08-21 00:21:00,76.1,70.6,30.19,East,90,1.0,4.0,83,0.00,,---,0.00,VWS V13.00,2013-08-21 04:21:00,
2013-08-21 00:26:00,76.0,70.5,30.19,East,90,0.0,4.0,83,0.00,,---,0.00,VWS V13.00,2013-08-21 04:26:00,
2013-08-21 00:30:00,75.8,70.3,30.19,East,90,0.0,4.0,83,0.00,,---,0.00,VWS V13.00,2013-08-21 04:30:00,
2013-08-21 00:31:00,75.8,70.3,30.19,East,90,0.0,4.0,83,0.00,,---,0.00,VWS V13.00,2013-08-21 04:31:00,
2013-08-21 00:36:00,75.8,70.3,30.19,East,90,0.0,1.0,83,0.00,,---,0.00,VWS V13.00,2013-08-21 04:36:00,
2013-08-21 00:41:00,75.7,70.2,30.20,North,360,0.0,4.0,83,0.00,,---,0.00,VWS V13.00,2013-08-21 04:41:00,
2013-08-21 00:46:00,75.7,70.2,30.20,North,360,0.0,4.0,83,0.00,,---,0.00,VWS V13.00,2013-08-21 04:46:00,
2013-08-21 00:51:00,75.6,70.1,30.20,North,360,0.0,4.0,83,0.00,,---,0.00,VWS V13.00,2013-08-21 04:51:00,
2013-08-21 00:56:00,75.6,70.1,30.20,North,360,2.0,4.0,83,0.00,,---,0.00,VWS V13.00,2013-08-21 04:56:00,
2013-08-21 01:00:00,75.5,70.0,30.20,North,360,0.0,4.0,83,0.00,,---,0.00,VWS V13.00,2013-08-21 05:00:00,
2013-08-21 01:01:00,75.5,70.0,30.20,North,360,0.0,4.0,83,0.00,,---,0.00,VWS V13.00,2013-08-21 05:01:00,
2013-08-21 01:06:00,75.5,70.0,30.20,North,360,1.0,4.0,83,0.00,,---,0.00,VWS V13.00,2013-08-21 05:06:00,
2013-08-21 01:11:00,75.5,70.0,30.20,North,360,3.0,4.0,83,0.00,,---,0.00,VWS V13.00,2013-08-21 05:11:00,
2013-08-21 01:16:00,75.4,69.9,30.20,North,360,0.0,4.0,83,0.00,,---,0.00,VWS V13.00,2013-08-21 05:16:00,
2013-08-21 01:21:00,75.3,69.8,30.20,North,360,0.0,4.0,83,0.00,,---,0.00,VWS V13.00,2013-08-21 05:21:00,
2013-08-21 01:26:00,75.3,69.8,30.20,North,360,0.0,4.0,83,0.00,,---,0.00,VWS V13.00,2013-08-21 05:26:00,
2013-08-21 01:30:00,75.2,69.7,30.19,North,360,0.0,4.0,83,0.00,,---,0.00,VWS V13.00,2013-08-21 05:30:00,
2013-08-21 01:31:00,75.2,69.7,30.20,North,360,0.0,4.0,83,0.00,,---,0.00,VWS V13.00,2013-08-21 05:31:00,
2013-08-21 01:36:00,75.1,69.6,30.19,North,360,0.0,0.0,83,0.00,,---,0.00,VWS V13.00,2013-08-21 05:36:00,
2013-08-21 01:41:00,75.0,69.5,30.19,North,360,0.0,0.0,83,0.00,,---,0.00,VWS V13.00,2013-08-21 05:41:00,
2013-08-21 01:46:00,75.0,69.5,30.19,North,360,0.0,0.0,83,0.00,,---,0.00,VWS V13.00,2013-08-21 05:46:00,
2013-08-21 01:51:00,74.9,69.4,30.19,North,360,0.0,0.0,83,0.00,,---,0.00,VWS V13.00,2013-08-21 05:51:00,
2013-08-21 01:56:00,74.8,69.3,30.19,North,360,0.0,0.0,83,0.00,,---,0.00,VWS V13.00,2013-08-21 05:56:00,
2013-08-21 02:00:00,74.7,69.2,30.19,North,360,0.0,0.0,83,0.00,,---,0.00,VWS V13.00,2013-08-21 06:00:00,
2013-08-21 02:01:00,74.8,69.3,30.19,North,360,0.0,0.0,83,0.00,,---,0.00,VWS V13.00,2013-08-21 06:01:00,
2013-08-21 02:06:00,74.7,69.2,30.19,North,360,0.0,0.0,83,0.00,,---,0.00,VWS V13.00,2013-08-21 06:06:00,
2013-08-21 02:11:00,74.6,69.4,30.19,North,360,0.0,1.0,84,0.00,,---,0.00,VWS V13.00,2013-08-21 06:11:00,
2013-08-21 02:16:00,74.6,69.4,30.19,North,360,0.0,1.0,84,0.00,,---,0.00,VWS V13.00,2013-08-21 06:16:00,
2013-08-21 02:21:00,74.6,69.1,30.18,North,360,0.0,2.0,83,0.00,,---,0.00,VWS V13.00,2013-08-21 06:21:00,
2013-08-21 02:26:00,74.6,69.1,30.18,North,360,0.0,2.0,83,0.00,,---,0.00,VWS V13.00,2013-08-21 06:26:00,
2013-08-21 02:30:00,74.5,69.0,30.18,North,360,0.0,2.0,83,0.00,,---,0.00,VWS V13.00,2013-08-21 06:30:00,
2013-08-21 02:31:00,74.5,69.0,30.18,North,360,0.0,2.0,83,0.00,,---,0.00,VWS V13.00,2013-08-21 06:31:00,
2013-08-21 02:36:00,74.6,69.1,30.18,North,360,0.0,0.0,83,0.00,,---,0.00,VWS V13.00,2013-08-21 06:36:00,
2013-08-21 02:41:00,74.5,69.0,30.18,North,360,0.0,2.0,83,0.00,,---,0.00,VWS V13.00,2013-08-21 06:41:00,
2013-08-21 02:46:00,74.4,68.9,30.18,North,360,0.0,2.0,83,0.00,,---,0.00,VWS V13.00,2013-08-21 06:46:00,
2013-08-21 02:51:00,74.5,69.3,30.18,North,360,1.0,3.0,84,0.00,,---,0.00,VWS V13.00,2013-08-21 06:51:00,
2013-08-21 02:56:00,74.5,69.0,30.18,North,360,0.0,3.0,83,0.00,,---,0.00,VWS V13.00,2013-08-21 06:56:00,
2013-08-21 03:00:00,74.4,69.2,30.18,North,360,3.0,3.0,84,0.00,,---,0.00,VWS V13.00,2013-08-21 07:00:00,
2013-08-21 03:01:00,74.4,69.3,30.18,North,360,2.0,3.0,84,0.00,,---,0.00,VWS V13.00,2013-08-21 07:01:00,
2013-08-21 03:06:00,74.4,69.3,30.18,North,360,0.0,3.0,84,0.00,,---,0.00,VWS V13.00,2013-08-21 07:06:00,
2013-08-21 03:11:00,74.5,69.3,30.18,North,360,0.0,3.0,84,0.00,,---,0.00,VWS V13.00,2013-08-21 07:11:00,
2013-08-21 03:16:00,74.6,69.4,30.18,North,360,0.0,3.0,84,0.00,,---,0.00,VWS V13.00,2013-08-21 07:16:00,
2013-08-21 03:21:00,74.6,69.4,30.18,North,360,1.0,3.0,84,0.00,,---,0.00,VWS V13.00,2013-08-21 07:21:00,
2013-08-21 03:26:00,74.6,69.4,30.18,North,360,0.0,3.0,84,0.00,,---,0.00,VWS V13.00,2013-08-21 07:26:00,
2013-08-21 03:30:00,74.7,69.6,30.18,North,360,0.0,3.0,84,0.00,,---,0.00,VWS V13.00,2013-08-21 07:30:00,
2013-08-21 03:31:00,74.7,69.6,30.18,North,360,0.0,3.0,84,0.00,,---,0.00,VWS V13.00,2013-08-21 07:31:00,
2013-08-21 03:36:00,74.7,69.6,30.18,North,360,0.0,2.0,84,0.00,,---,0.00,VWS V13.00,2013-08-21 07:36:00,
2013-08-21 03:41:00,74.7,69.6,30.18,North,360,0.0,3.0,84,0.00,,---,0.00,VWS V13.00,2013-08-21 07:41:00,
2013-08-21 03:46:00,74.7,69.6,30.18,North,360,0.0,3.0,84,0.00,,---,0.00,VWS V13.00,2013-08-21 07:46:00,
2013-08-21 03:51:00,74.7,69.6,30.18,North,360,0.0,3.0,84,0.00,,---,0.00,VWS V13.00,2013-08-21 07:51:00,
2013-08-21 03:56:00,74.7,69.6,30.18,North,360,1.0,3.0,84,0.00,,---,0.00,VWS V13.00,2013-08-21 07:56:00,
2013-08-21 04:00:00,74.7,69.6,30.18,North,360,0.0,3.0,84,0.00,,---,0.00,VWS V13.00,2013-08-21 08:00:00,
2013-08-21 04:01:00,74.7,69.6,30.18,North,360,0.0,3.0,84,0.00,,---,0.00,VWS V13.00,2013-08-21 08:01:00,
2013-08-21 04:06:00,74.7,69.6,30.17,North,360,0.0,0.0,84,0.00,,---,0.00,VWS V13.00,2013-08-21 08:06:00,
2013-08-21 04:11:00,74.7,69.6,30.18,North,360,0.0,0.0,84,0.00,,---,0.00,VWS V13.00,2013-08-21 08:11:00,
2013-08-21 04:16:00,74.7,69.6,30.17,North,360,0.0,0.0,84,0.00,,---,0.00,VWS V13.00,2013-08-21 08:16:00,
2013-08-21 04:20:00,74.8,69.7,30.18,North,360,3.0,3.0,84,0.00,,---,0.00,VWS V13.00,2013-08-21 08:20:00,
2013-08-21 04:25:00,74.7,69.6,30.18,North,360,0.0,3.0,84,0.00,,---,0.00,VWS V13.00,2013-08-21 08:25:00,
2013-08-21 04:30:00,74.6,69.4,30.18,North,360,0.0,3.0,84,0.00,,---,0.00,VWS V13.00,2013-08-21 08:30:00,
2013-08-21 04:31:00,74.7,69.6,30.18,North,360,0.0,3.0,84,0.00,,---,0.00,VWS V13.00,2013-08-21 08:31:00,
2013-08-21 04:35:00,74.6,69.4,30.18,North,360,0.0,2.0,84,0.00,,---,0.00,VWS V13.00,2013-08-21 08:35:00,
2013-08-21 04:40:00,74.5,69.3,30.18,North,360,0.0,2.0,84,0.00,,---,0.00,VWS V13.00,2013-08-21 08:40:00,
2013-08-21 04:45:00,74.4,69.3,30.18,North,360,0.0,2.0,84,0.00,,---,0.00,VWS V13.00,2013-08-21 08:45:00,
2013-08-21 04:50:00,74.3,69.2,30.18,North,360,0.0,2.0,84,0.00,,---,0.00,VWS V13.00,2013-08-21 08:50:00,
2013-08-21 04:55:00,74.2,69.1,30.18,North,360,0.0,2.0,84,0.00,,---,0.00,VWS V13.00,2013-08-21 08:55:00,
2013-08-21 05:00:00,74.1,69.0,30.18,North,360,0.0,2.0,84,0.00,,---,0.00,VWS V13.00,2013-08-21 09:00:00,
2013-08-21 05:05:00,74.0,68.9,30.18,North,360,0.0,1.0,84,0.00,,---,0.00,VWS V13.00,2013-08-21 09:05:00,
2013-08-21 05:10:00,74.0,68.9,30.18,North,360,0.0,1.0,84,0.00,,---,0.00,VWS V13.00,2013-08-21 09:10:00,
2013-08-21 05:15:00,73.9,68.8,30.18,North,360,0.0,3.0,84,0.00,,---,0.00,VWS V13.00,2013-08-21 09:15:00,
2013-08-21 05:20:00,73.9,68.8,30.18,North,360,2.0,3.0,84,0.00,,---,0.00,VWS V13.00,2013-08-21 09:20:00,
2013-08-21 05:25:00,73.9,68.8,30.18,North,360,0.0,4.0,84,0.00,,---,0.00,VWS V13.00,2013-08-21 09:25:00,
2013-08-21 05:30:00,73.7,68.6,30.18,North,360,2.0,5.0,84,0.00,,---,0.00,VWS V13.00,2013-08-21 09:30:00,
2013-08-21 05:35:00,73.8,68.7,30.18,North,360,3.0,4.0,84,0.00,,---,0.00,VWS V13.00,2013-08-21 09:35:00,
2013-08-21 05:40:00,73.8,68.7,30.18,NNE,26,0.0,4.0,84,0.00,,---,0.00,VWS V13.00,2013-08-21 09:40:00,
2013-08-21 05:45:00,73.7,68.6,30.18,NNE,26,1.0,4.0,84,0.00,,---,0.00,VWS V13.00,2013-08-21 09:45:00,
2013-08-21 05:50:00,73.7,68.6,30.18,NNE,26,0.0,4.0,84,0.00,,---,0.00,VWS V13.00,2013-08-21 09:50:00,
2013-08-21 05:55:00,73.6,68.5,30.19,NNE,26,0.0,4.0,84,0.00,,---,0.00,VWS V13.00,2013-08-21 09:55:00,
2013-08-21 06:00:00,73.5,68.4,30.18,NNE,26,0.0,4.0,84,0.00,,---,0.00,VWS V13.00,2013-08-21 10:00:00,
2013-08-21 06:30:00,73.6,68.5,30.19,NNE,22,0.0,3.0,84,0.00,,---,0.00,VWS V13.00,2013-08-21 10:30:00,
2013-08-21 07:00:00,73.6,68.5,30.20,NNE,22,1.0,3.0,84,0.00,,---,0.00,VWS V13.00,2013-08-21 11:00:00,
2013-08-21 07:30:00,74.4,69.3,30.20,NNE,22,0.0,3.0,84,0.00,,---,0.00,VWS V13.00,2013-08-21 11:30:00,
2013-08-21 08:00:00,76.2,71.0,30.21,NE,45,1.0,5.0,84,0.00,,---,0.00,VWS V13.00,2013-08-21 12:00:00,
2013-08-21 08:30:00,77.6,72.4,30.22,ENE,68,2.0,6.0,84,0.00,,---,0.00,VWS V13.00,2013-08-21 12:30:00,
2013-08-21 09:00:00,78.4,73.2,30.22,NE,45,2.0,6.0,84,0.00,,---,0.00,VWS V13.00,2013-08-21 13:00:00,
2013-08-21 09:30:00,79.4,74.2,30.23,NE,45,2.0,5.0,84,0.00,,---,0.00,VWS V13.00,2013-08-21 13:30:00,
2013-08-21 10:00:00,81.1,75.8,30.23,ESE,112,4.0,9.0,84,0.00,,---,0.00,VWS V13.00,2013-08-21 14:00:00,
2013-08-21 10:30:00,82.2,76.5,30.24,ESE,112,5.0,9.0,83,0.00,,---,0.00,VWS V13.00,2013-08-21 14:30:00,
2013-08-21 11:00:00,82.9,77.2,30.24,SE,135,6.0,11.0,83,0.00,,---,0.00,VWS V13.00,2013-08-21 15:00:00,
2013-08-21 11:30:00,83.3,77.2,30.24,SE,135,6.0,11.0,82,0.00,,---,0.00,VWS V13.00,2013-08-21 15:30:00,
2013-08-21 12:00:00,83.8,77.7,30.23,SE,135,6.0,11.0,82,0.00,,---,0.00,VWS V13.00,2013-08-21 16:00:00,
2013-08-21 12:30:00,84.8,78.3,30.23,SE,135,6.0,11.0,81,0.00,,---,0.00,VWS V13.00,2013-08-21 16:30:00,
2013-08-21 13:00:00,85.0,78.5,30.22,SE,135,5.0,10.0,81,0.00,,---,0.00,VWS V13.00,2013-08-21 17:00:00,
2013-08-21 13:30:00,84.9,78.4,30.22,SE,135,5.0,9.0,81,0.00,,---,0.00,VWS V13.00,2013-08-21 17:30:00,
2013-08-21 14:00:00,84.9,78.4,30.20,SE,135,4.0,9.0,81,0.00,,---,0.00,VWS V13.00,2013-08-21 18:00:00,
2013-08-21 14:30:00,85.9,79.0,30.20,SE,135,5.0,12.0,80,0.00,,---,0.00,VWS V13.00,2013-08-21 18:30:00,
2013-08-21 15:00:00,85.5,78.6,30.18,ESE,112,7.0,11.0,80,0.00,,---,0.00,VWS V13.00,2013-08-21 19:00:00,
2013-08-21 15:30:00,85.5,78.6,30.17,SE,135,5.0,12.0,80,0.00,,---,0.00,VWS V13.00,2013-08-21 19:30:00,
2013-08-21 16:00:00,85.4,78.2,30.17,SE,135,7.0,15.0,79,0.00,,---,0.00,VWS V13.00,2013-08-21 20:00:00,
2013-08-21 16:30:00,84.7,77.5,30.16,SE,135,7.0,14.0,79,0.00,,---,0.00,VWS V13.00,2013-08-21 20:30:00,
2013-08-21 17:00:00,84.5,77.3,30.16,ESE,112,7.0,14.0,79,0.00,,---,0.00,VWS V13.00,2013-08-21 21:00:00,
2013-08-21 17:21:00,84.5,77.3,30.16,ESE,112,7.0,14.0,79,0.00,,---,0.00,VWS V13.00,2013-08-21 21:21:00,
2013-08-21 17:26:00,84.5,77.3,30.16,SE,132,5.0,10.0,79,0.00,,---,0.00,VWS V13.00,2013-08-21 21:26:00,
2013-08-21 17:31:00,84.3,77.1,30.15,SSE,160,5.0,6.0,79,0.00,,---,0.00,VWS V13.00,2013-08-21 21:31:00,
2013-08-21 17:36:00,84.1,76.9,30.15,SE,130,7.0,12.0,79,0.00,,---,0.00,VWS V13.00,2013-08-21 21:36:00,
2013-08-21 17:41:00,84.1,76.9,30.15,SSE,151,5.0,12.0,79,0.00,,---,0.00,VWS V13.00,2013-08-21 21:41:00,
2013-08-21 17:46:00,84.2,77.0,30.15,SE,136,9.0,12.0,79,0.00,,---,0.00,VWS V13.00,2013-08-21 21:46:00,
2013-08-21 17:51:00,84.2,77.0,30.15,ESE,119,8.0,12.0,79,0.00,,---,0.00,VWS V13.00,2013-08-21 21:51:00,
2013-08-21 17:56:00,84.1,76.9,30.15,SE,126,8.0,12.0,79,0.00,,---,0.00,VWS V13.00,2013-08-21 21:56:00,
2013-08-21 18:01:00,83.9,76.7,30.15,SE,146,5.0,5.0,79,0.00,,---,0.00,VWS V13.00,2013-08-21 22:01:00,
2013-08-21 18:06:00,83.6,76.4,30.15,ESE,117,5.0,9.0,79,0.00,,---,0.00,VWS V13.00,2013-08-21 22:06:00,
2013-08-21 18:11:00,83.4,76.2,30.15,SSE,150,5.0,9.0,79,0.00,,---,0.00,VWS V13.00,2013-08-21 22:11:00,
2013-08-21 18:16:00,83.3,76.1,30.15,ESE,120,1.0,9.0,79,0.00,,---,0.00,VWS V13.00,2013-08-21 22:16:00,
2013-08-21 18:21:00,83.3,76.1,30.15,South,170,4.0,9.0,79,0.00,,---,0.00,VWS V13.00,2013-08-21 22:21:00,
2013-08-21 18:26:00,83.3,76.1,30.15,South,189,3.0,9.0,79,0.00,,---,0.00,VWS V13.00,2013-08-21 22:26:00,
2013-08-21 18:31:00,83.2,76.0,30.15,SSE,158,4.0,4.0,79,0.00,,---,0.00,VWS V13.00,2013-08-21 22:31:00,
2013-08-21 18:36:00,83.2,76.0,30.15,SSE,153,1.0,7.0,79,0.00,,---,0.00,VWS V13.00,2013-08-21 22:36:00,
2013-08-21 18:41:00,83.0,75.8,30.14,South,178,4.0,7.0,79,0.00,,---,0.00,VWS V13.00,2013-08-21 22:41:00,
2013-08-21 18:46:00,82.9,76.1,30.14,South,169,1.0,7.0,80,0.00,,---,0.00,VWS V13.00,2013-08-21 22:46:00,
2013-08-21 18:51:00,82.9,76.1,30.14,SE,134,1.0,7.0,80,0.00,,---,0.00,VWS V13.00,2013-08-21 22:51:00,
2013-08-21 18:56:00,82.9,76.1,30.14,SE,138,0.0,7.0,80,0.00,,---,0.00,VWS V13.00,2013-08-21 22:56:00,
2013-08-21 19:01:00,82.8,76.0,30.15,SE,135,0.0,0.0,80,0.00,,---,0.00,VWS V13.00,2013-08-21 23:01:00,
2013-08-21 19:06:00,82.8,76.0,30.14,ESE,111,1.0,5.0,80,0.00,,---,0.00,VWS V13.00,2013-08-21 23:06:00,
2013-08-21 19:11:00,82.7,75.9,30.15,SE,130,1.0,6.0,80,0.00,,---,0.00,VWS V13.00,2013-08-21 23:11:00,
2013-08-21 19:16:00,82.6,75.8,30.14,SE,132,2.0,6.0,80,0.00,,---,0.00,VWS V13.00,2013-08-21 23:16:00,
2013-08-21 19:21:00,82.5,75.7,30.14,SE,135,5.0,6.0,80,0.00,,---,0.00,VWS V13.00,2013-08-21 23:21:00,
2013-08-21 19:26:00,82.3,75.5,30.14,SE,139,2.0,6.0,80,0.00,,---,0.00,VWS V13.00,2013-08-21 23:26:00,
2013-08-21 19:31:00,82.3,75.5,30.14,SE,145,0.0,6.0,80,0.00,,---,0.00,VWS V13.00,2013-08-21 23:31:00,
2013-08-21 19:36:00,82.2,75.4,30.15,SSE,165,0.0,4.0,80,0.00,,---,0.00,VWS V13.00,2013-08-21 23:36:00,
2013-08-21 19:41:00,82.1,75.3,30.14,South,170,1.0,6.0,80,0.00,,---,0.00,VWS V13.00,2013-08-21 23:41:00,
2013-08-21 19:46:00,82.0,75.2,30.14,SSE,157,2.0,6.0,80,0.00,,---,0.00,VWS V13.00,2013-08-21 23:46:00,
2013-08-21 19:51:00,82.0,75.2,30.14,SSE,153,0.0,6.0,80,0.00,,---,0.00,VWS V13.00,2013-08-21 23:51:00,
2013-08-21 19:56:00,81.9,75.1,30.14,SSE,167,2.0,6.0,80,0.00,,---,0.00,VWS V13.00,2013-08-21 23:56:00,
2013-08-21 20:01:00,81.8,75.0,30.14,SSE,160,0.0,6.0,80,0.00,,---,0.00,VWS V13.00,2013-08-22 00:01:00,
2013-08-21 20:06:00,81.8,75.0,30.15,South,178,0.0,4.0,80,0.00,,---,0.00,VWS V13.00,2013-08-22 00:06:00,
2013-08-21 20:11:00,81.6,74.8,30.15,SSE,148,2.0,5.0,80,0.00,,---,0.00,VWS V13.00,2013-08-22 00:11:00,
2013-08-21 20:16:00,81.5,74.7,30.15,South,183,3.0,6.0,80,0.00,,---,0.00,VWS V13.00,2013-08-22 00:16:00,
2013-08-21 20:21:00,81.5,74.7,30.14,SSE,166,4.0,6.0,80,0.00,,---,0.00,VWS V13.00,2013-08-22 00:21:00,
2013-08-21 20:26:00,81.5,75.1,30.15,SSE,163,1.0,6.0,81,0.00,,---,0.00,VWS V13.00,2013-08-22 00:26:00,
2013-08-21 20:31:00,81.4,75.0,30.15,SSE,156,1.0,1.0,81,0.00,,---,0.00,VWS V13.00,2013-08-22 00:31:00,
2013-08-21 20:36:00,81.4,75.0,30.15,SSE,155,0.0,4.0,81,0.00,,---,0.00,VWS V13.00,2013-08-22 00:36:00,
2013-08-21 20:41:00,81.4,75.0,30.16,SSE,155,0.0,4.0,81,0.00,,---,0.00,VWS V13.00,2013-08-22 00:41:00,
2013-08-21 20:46:00,81.2,74.8,30.16,South,179,5.0,5.0,81,0.00,,---,0.00,VWS V13.00,2013-08-22 00:46:00,
2013-08-21 20:51:00,81.1,74.7,30.16,SSE,167,0.0,5.0,81,0.00,,---,0.00,VWS V13.00,2013-08-22 00:51:00,
2013-08-21 20:56:00,81.1,74.7,30.17,SSE,167,1.0,5.0,81,0.00,,---,0.00,VWS V13.00,2013-08-22 00:56:00,
2013-08-21 21:01:00,81.0,74.6,30.17,SW,217,0.0,0.0,81,0.00,,---,0.00,VWS V13.00,2013-08-22 01:01:00,
2013-08-21 21:06:00,80.9,74.5,30.17,SSW,211,2.0,4.0,81,0.00,,---,0.00,VWS V13.00,2013-08-22 01:06:00,
2013-08-21 21:11:00,80.9,74.5,30.17,SW,214,1.0,4.0,81,0.00,,---,0.00,VWS V13.00,2013-08-22 01:11:00,
2013-08-21 21:16:00,80.9,74.5,30.17,SW,214,0.0,4.0,81,0.00,,---,0.00,VWS V13.00,2013-08-22 01:16:00,
2013-08-21 21:21:00,80.9,74.5,30.17,SW,236,0.0,4.0,81,0.00,,---,0.00,VWS V13.00,2013-08-22 01:21:00,
2013-08-21 21:26:00,80.8,74.4,30.17,SW,236,0.0,4.0,81,0.00,,---,0.00,VWS V13.00,2013-08-22 01:26:00,
2013-08-21 21:31:00,80.7,74.3,30.18,SW,236,0.0,4.0,81,0.00,,---,0.00,VWS V13.00,2013-08-22 01:31:00,
2013-08-21 21:36:00,80.6,74.2,30.18,SW,236,0.0,2.0,81,0.00,,---,0.00,VWS V13.00,2013-08-22 01:36:00,
2013-08-21 21:41:00,80.5,74.1,30.18,SW,236,0.0,2.0,81,0.00,,---,0.00,VWS V13.00,2013-08-22 01:41:00,
2013-08-21 21:46:00,80.3,73.9,30.18,SW,236,0.0,2.0,81,0.00,,---,0.00,VWS V13.00,2013-08-22 01:46:00,
2013-08-21 21:51:00,80.3,73.9,30.18,SW,236,0.0,3.0,81,0.00,,---,0.00,VWS V13.00,2013-08-22 01:51:00,
2013-08-21 21:56:00,80.2,73.8,30.18,SW,236,0.0,3.0,81,0.00,,---,0.00,VWS V13.00,2013-08-22 01:56:00,
2013-08-21 22:01:00,80.1,73.8,30.18,SW,236,0.0,3.0,81,0.00,,---,0.00,VWS V13.00,2013-08-22 02:01:00,
2013-08-21 22:06:00,80.1,73.8,30.18,SW,236,0.0,3.0,81,0.00,,---,0.00,VWS V13.00,2013-08-22 02:06:00,
2013-08-21 22:11:00,80.0,73.7,30.18,SW,236,2.0,3.0,81,0.00,,---,0.00,VWS V13.00,2013-08-22 02:11:00,
2013-08-21 22:16:00,80.0,73.7,30.18,SW,236,2.0,4.0,81,0.00,,---,0.00,VWS V13.00,2013-08-22 02:16:00,
2013-08-21 22:21:00,80.0,73.7,30.18,WSW,245,2.0,4.0,81,0.00,,---,0.00,VWS V13.00,2013-08-22 02:21:00,
2013-08-21 22:26:00,80.0,73.7,30.18,WSW,244,0.0,4.0,81,0.00,,---,0.00,VWS V13.00,2013-08-22 02:26:00,
2013-08-21 22:31:00,80.0,74.0,30.18,WSW,245,2.0,4.0,82,0.00,,---,0.00,VWS V13.00,2013-08-22 02:31:00,
2013-08-21 22:36:00,80.1,74.1,30.18,SW,234,4.0,5.0,82,0.00,,---,0.00,VWS V13.00,2013-08-22 02:36:00,
2013-08-21 22:41:00,80.2,74.2,30.18,WSW,248,13.0,13.0,82,0.00,,---,0.00,VWS V13.00,2013-08-22 02:41:00,
2013-08-21 22:46:00,79.8,73.4,30.19,WNW,300,3.0,14.0,81,0.00,,---,0.00,VWS V13.00,2013-08-22 02:46:00,
2013-08-21 22:51:00,79.0,72.7,30.19,WNW,284,9.0,14.0,81,0.00,,---,0.00,VWS V13.00,2013-08-22 02:51:00,
2013-08-21 22:56:00,78.2,71.9,30.18,WNW,290,1.0,14.0,81,0.00,,---,0.00,VWS V13.00,2013-08-22 02:56:00,
2013-08-21 23:01:00,77.8,71.5,30.18,WNW,291,0.0,14.0,81,0.00,,---,0.00,VWS V13.00,2013-08-22 03:01:00,
2013-08-21 23:06:00,77.4,71.1,30.18,WNW,286,2.0,8.0,81,0.00,,---,0.00,VWS V13.00,2013-08-22 03:06:00,
2013-08-21 23:11:00,77.1,70.8,30.18,West,276,1.0,8.0,81,0.00,,---,0.00,VWS V13.00,2013-08-22 03:11:00,
2013-08-21 23:16:00,76.8,70.5,30.17,NNW,328,3.0,8.0,81,0.00,,---,0.00,VWS V13.00,2013-08-22 03:16:00,
2013-08-21 23:21:00,76.6,70.3,30.17,West,281,0.0,8.0,81,0.00,,---,0.00,VWS V13.00,2013-08-22 03:21:00,
2013-08-21 23:26:00,76.4,70.1,30.16,WNW,302,0.0,8.0,81,0.00,,---,0.00,VWS V13.00,2013-08-22 03:26:00,
2013-08-21 23:31:00,76.2,69.9,30.16,WNW,300,0.0,8.0,81,0.00,,---,0.00,VWS V13.00,2013-08-22 03:31:00,
2013-08-21 23:36:00,76.0,69.8,30.15,SSE,161,1.0,1.0,81,0.00,,---,0.00,VWS V13.00,2013-08-22 03:36:00,
2013-08-21 23:41:00,75.8,69.6,30.14,SSE,160,0.0,2.0,81,0.00,,---,0.00,VWS V13.00,2013-08-22 03:41:00,
2013-08-21 23:46:00,75.7,69.5,30.14,SSE,160,1.0,4.0,81,0.00,,---,0.00,VWS V13.00,2013-08-22 03:46:00,
2013-08-21 23:51:00,75.6,69.4,30.14,South,169,2.0,5.0,81,0.00,,---,0.00,VWS V13.00,2013-08-22 03:51:00,
2013-08-21 23:56:00,75.7,69.5,30.14,SSE,165,0.0,5.0,81,0.00,,---,0.00,VWS V13.00,2013-08-22 03:56:00,